This demonstration page uses our WeatherBlox Daily Observations layout. Learn more.

Left ArrowRight Arrow

41.86663, -103.66717

Hourly Observations for March 10, 2018

Temp ( °F °C ) Dew Point ( °F °C ) Humidity (%) Winds ( mph kmh ) Pressure ( in mb ) Visibility ( mi km ) Precip ( " mm )
12:53 am 00:53 Clear 38 3.3 21 -6.1 51 51 NW 13 20 29.70 1006 10 16 N/A
1:53 am 01:53 Clear 36 2.2 21 -6.1 55 55 WNW 9 15 29.71 1006 10 16 N/A
2:53 am 02:53 Clear 37 2.8 22 -5.6 54 54 WNW 10 17 29.71 1006 10 16 N/A
3:53 am 03:53 Clear 34 1.1 22 -5.6 61 61 NW 8 13 29.72 1007 10 16 N/A
4:53 am 04:53 Clear 36 2.2 23 -5 59 59 NNW 16 26 29.79 1009 10 16 N/A
5:53 am 05:53 Clear 36 2.2 28 -2.2 73 73 NNW 16 26 29.83 1010 10 16 N/A
6:53 am 06:53 Sunny 35 1.7 23 -5 61 61 NW 21 33 29.88 1012 10 16 N/A
7:53 am 07:53 Sunny 40 4.4 22 -5.6 49 49 NW 22 35 29.92 1013 10 16 N/A
8:53 am 08:53 Sunny 41 5 20 -6.7 43 43 NW 20 31 29.96 1015 10 16 N/A
9:53 am 09:53 Mostly Sunny 45 7.2 20 -6.7 37 37 WNW 24 39 29.94 1014 10 16 N/A
10:53 am 10:53 Sunny 47 8.3 19 -7.2 33 33 NW 25 41 29.96 1015 10 16 N/A
11:53 am 11:53 Sunny 48 8.9 19 -7.2 32 32 NW 23 37 29.97 1015 10 16 N/A
12:53 pm 12:53 Mostly Sunny 49 9.4 18 -7.8 29 29 NW 25 41 29.97 1015 10 16 N/A
1:53 pm 13:53 Mostly Cloudy 48 8.9 22 -5.6 36 36 NW 29 46 30.00 1016 10 16 N/A
2:53 pm 14:53 Mostly Cloudy 42 5.6 24 -4.4 49 49 NW 33 54 30.06 1018 10 16 N/A
3:53 pm 15:53 Mostly Cloudy 42 5.6 22 -5.6 45 45 NW 32 52 30.12 1020 10 16 N/A
4:53 pm 16:53 Sunny 41 5 20 -6.7 43 43 NNW 30 48 30.14 1021 10 16 N/A
5:53 pm 17:53 Sunny 37 2.8 20 -6.7 50 50 NNW 16 26 30.18 1022 10 16 N/A
6:53 pm 18:53 Clear 33 0.6 19 -7.2 56 56 NW 7 11 30.21 1023 10 16 N/A
7:53 pm 19:53 Clear 31 -0.6 19 -7.2 61 61 NW 6 9 30.21 1023 10 16 N/A
8:53 pm 20:53 Clear 30 -1.1 19 -7.2 64 64 WNW 5 7 30.24 1024 10 16 N/A
9:53 pm 21:53 Clear 30 -1.1 18 -7.8 61 61 NW 8 13 30.25 1024 10 16 N/A
10:53 pm 22:53 Clear 25 -3.9 18 -7.8 75 75 NW 7 11 30.27 1025 10 16 N/A
11:53 pm 23:53 Clear 23 -5 18 -7.8 81 81 W 5 7 30.31 1026 10 16 N/A

Powered by AerisWeather